GFSNW_prec_cloud_009.txt.gz
Cloud_Cover
100 100 100 100 24 51 33 22 17 5 0 0 5 5 5 5 5 3 5 3 5 5 5 5 0 0 0 0 0 0 0 2 5 5 12 90 10 5 5 83 20 5 15 32
100 100 100 100 60 100 64 31 39 5 0 0 0 4 5 5 5 5 5 5 9 9 5 3 0 0 2 0 3 4 1 5 5 5 5 9 6 0 5 5 10 77 79 34
100 100 100 99 85 100 77 36 6 2 0 0 0 0 4 1 5 5 5 4 5 5 5 3 0 0 0 0 2 3 0 1 5 5 1 3 5 1 1 5 80 55 56 73
97 94 100 100 12 83 84 42 5 5 0 0 0 0 0 0 5 5 5 5 0 1 0 1 4 5 2 5 5 5 5 5 44 5 5 18 8 5 68 5 5 96 7 5
100 100 100 44 5 5 5 4 5 5 5 0 0 0 0 0 0 5 5 5 5 5 5 5 5 5 5 3 5 5 5 5 5 48 5 5 21 5 5 5 5 6 7 25
100 100 100 41 11 5 4 2 7 66 5 5 0 1 0 0 0 5 5 5 5 5 8 5 5 27 5 2 3 3 1 4 55 21 81 69 100 6 6 63 33 93 65 28
99 100 100 44 35 39 6 5 5 5 0 4 5 5 3 0 0 2 5 5 5 5 21 13 8 5 5 5 5 5 40 36 56 32 92 68 100 9 48 71 74 5 5 5
90 100 100 25 81 99 93 13 5 16 58 45 5 5 5 5 5 5 5 5 5 5 5 5 5 5 5 5 7 8 5 45 90 96 92 47 93 5 5 5 94 5 5 5
91 76 55 65 5 31 80 62 5 5 6 5 5 5 5 5 5 5 5 15 44 55 32 5 5 5 20 53 14 12 8 7 18 90 98 98 5 5 5 5 7 78 100 92
51 14 9 5 5 5 5 5 5 5 15 5 5 5 5 19 16 5 5 10 6 8 85 72 7 5 6 34 9 34 100 100 100 100 100 16 11 5 5 29 88 94 92 64
100 97 76 56 80 42 31 5 6 5 39 32 5 2 0 2 5 5 5 5 10 96 99 40 58 81 48 56 56 98 66 96 100 91 100 91 22 67 81 87 100 94 5 7
100 100 100 100 100 100 100 98 75 92 93 62 94 100 93 29 29 6 5 5 25 6 73 78 82 96 86 81 96 100 91 100 80 96 32 76 93 100 78 62 58 5 44 100
100 100 100 100 100 100 100 100 100 100 100 100 100 100 98 40 6 5 5 53 5 5 5 53 76 85 98 91 100 100 100 100 92 99 72 100 16 15 100 100 100 100 100 100
100 100 100 100 100 100 100 100 100 100 100 100 88 52 5 5 58 66 28 6 5 5 38 100 100 100 100 99 89 95 100 100 100 48 36 5 97 100 100 100 100 100 100 100
100 100 100 100 100 100 100 91 100 98 79 100 91 65 14 38 59 99 99 99 100 96 100 100 100 98 93 100 100 100 100 97 88 98 11 99 100 100 100 100 99 100 100 100
100 100 100 100 100 100 100 100 100 100 90 100 100 100 100 100 100 100 100 100 100 99 100 100 100 100 100 100 100 92 100 95 100 100 100 100 84 100 100 100 100 100 99 76
100 100 100 100 100 100 100 100 100 100 100 100 100 100 100 100 100 100 100 100 100 58 100 100 100 100 100 100 100 100 100 100 100 100 100 100 100 100 100 100 95 40 100 100
100 100 100 100 100 100 100 100 100 100 100 100 100 100 100 100 100 100 100 100 100 100 100 100 100 90 100 100 100 100 100 100 100 61 61 99 99 100 98 90 100 100 100 100
100 100 100 100 100 100 100 100 100 100 100 100 100 100 100 100 100 100 100 100 100 100 100 100 100 100 100 100 100 100 100 91 94 80 93 100 100 100 100 97 100 91 63 66
100 100 100 100 100 100 100 100 100 100 100 100 100 100 100 92 100 100 100 100 100 100 91 79 100 100 100 100 100 99 67 5 5 70 100 95 85 6 7 61 96 100 83 53
100 100 100 100 100 100 100 100 100 100 100 100 100 100 100 100 100 100 100 100 100 99 7 97 94 89 5 16 16 5 8 6 31 10 9 24 100 99 54 10 100 100 83 17
100 100 100 100 100 100 100 100 100 100 59 98 100 100 100 100 100 100 100 91 99 81 90 100 98 66 53 88 73 85 100 96 100 100 100 100 100 100 100 91 11 17 81 98
100 100 100 100 100 100 100 100 100 98 100 100 100 100 100 100 100 100 100 100 82 82 98 85 94 100 93 96 100 100 100 94 100 100 100 99 24 8 5 4 5 74 100 100
100 100 100 100 100 96 95 100 100 100 100 100 100 100 100 98 100 98 98 74 92 100 100 100 100 85 97 99 100 98 100 100 100 96 8 5 1 0 1 5 1 13 36 26
100 90 100 100 82 82 100 100 100 100 100 100 100 100 88 98 100 98 93 92 99 100 100 53 34 95 96 96 99 56 17 28 10 8 1 0 0 0 0 0 0 5 80 100
98 99 98 98 100 99 100 100 100 100 100 100 99 87 60 82 83 63 100 100 100 96 19 55 90 99 99 62 52 27 23 2 0 0 0 0 0 0 4 4 4 17 26 75
96 85 98 90 100 96 99 99 100 100 100 100 100 100 17 38 82 90 100 100 79 6 5 42 19 56 20 5 2 0 0 0 0 0 0 0 1 5 6 6 5 5 5 6

GFSNW_prec_cloud_015.txt.gz
Cloud_Cover
100 100 100 100 100 74 68 20 6 66 41 40 9 1 4 1 5 3 5 5 5 5 3 0 0 0 0 0 0 0 0 0 0 0 0 0 4 5 0 5 5 4 18 14
100 100 100 100 100 26 100 80 35 44 7 33 5 5 5 4 5 5 59 16 5 5 5 1 0 0 0 0 0 0 0 0 0 0 0 0 0 0 5 5 14 5 47 92
100 100 100 100 100 100 50 38 8 27 36 28 19 5 5 0 5 5 5 5 4 5 5 2 0 0 0 0 1 5 2 0 0 0 0 5 0 0 4 5 50 38 17 99
100 100 100 100 88 100 100 100 6 15 84 8 22 5 0 0 5 5 2 0 1 4 5 5 5 1 0 0 0 0 0 0 0 5 5 5 5 2 3 5 5 33 98 98
100 100 100 100 100 100 100 69 77 12 22 31 8 5 5 5 0 0 0 0 0 0 0 0 0 5 5 3 5 5 5 5 5 5 5 5 5 2 5 5 3 5 5 19
100 100 100 100 100 100 100 100 76 51 36 55 25 6 5 5 5 4 5 0 0 2 0 2 0 0 0 0 4 5 5 5 48 64 27 5 5 5 3 5 5 5 5 7
100 100 100 100 100 100 100 100 98 97 64 10 5 5 5 5 5 5 5 5 5 5 5 5 4 0 0 0 0 5 97 22 84 75 36 62 10 0 2 5 5 5 63 34
100 100 100 100 100 100 100 100 100 32 97 25 5 5 5 5 5 5 5 8 5 5 5 5 5 5 4 3 12 0 5 72 54 89 89 6 12 2 5 5 26 6 46 43
100 100 100 100 100 100 100 100 100 100 94 65 76 46 5 5 5 5 5 5 5 7 5 5 5 5 5 5 5 16 8 5 5 90 100 79 5 2 5 7 33 43 53 45
100 100 100 100 100 100 100 100 100 100 100 100 87 36 5 11 30 12 5 5 5 5 8 31 4 5 5 5 4 4 96 96 100 100 100 12 5 6 95 100 86 99 100 80
100 100 100 100 100 100 100 100 100 100 98 55 60 48 26 24 9 12 61 88 15 89 100 100 99 7 6 8 5 5 12 77 79 95 97 57 26 83 96 94 66 100 58 30
100 99 100 100 100 100 100 100 100 100 100 100 99 19 5 23 62 69 19 6 6 5 74 60 90 56 42 10 14 18 99 23 99 100 32 5 84 5 92 86 100 100 100 100
100 100 100 100 100 100 100 100 100 100 100 100 96 11 11 43 6 5 18 5 6 52 5 7 22 10 6 46 50 6 100 70 88 95 53 33 83 61 64 100 100 100 100 100
100 100 100 100 100 100 100 100 100 100 100 100 90 44 5 5 5 22 23 38 87 99 38 100 100 93 56 33 17 75 95 84 63 51 28 72 97 100 100 100 99 96 99 100
100 100 100 100 100 100 100 93 99 97 38 100 95 5 40 40 39 70 90 99 100 100 100 100 100 100 97 100 100 78 100 59 86 88 100 100 86 100 100 100 78 30 96 78
100 100 100 100 100 100 100 100 100 98 76 100 100 87 66 85 100 100 100 100 48 100 100 100 100 100 90 100 100 100 65 97 100 100 96 100 100 100 100 86 85 6 6 5
100 100 100 100 100 100 100 100 100 100 100 100 100 100 100 100 100 100 100 100 100 83 100 100 100 100 95 100 100 70 100 100 85 74 100 75 100 98 5 5 5 5 5 42
100 100 100 100 100 100 100 100 100 100 100 100 100 100 100 100 100 100 100 100 100 100 100 100 100 100 100 100 100 100 99 88 100 100 100 92 90 69 50 90 32 75 5 5
100 100 100 100 100 100 100 100 100 100 100 100 100 100 100 100 100 100 100 100 100 94 100 100 100 100 100 99 80 57 100 100 100 100 93 72 81 73 98 90 67 7 5 5
100 100 100 100 100 100 100 100 100 100 100 100 100 100 100 100 100 100 100 100 100 90 94 99 100 100 100 100 100 100 100 100 95 94 66 16 9 82 8 5 66 85 5 5
100 100 100 100 100 100 100 100 100 100 100 100 100 100 100 100 99 100 100 100 96 100 68 100 89 99 100 100 100 100 97 99 97 69 26 27 23 5 5 5 5 3 0 0
100 100 100 100 100 100 100 100 100 100 100 100 100 100 100 100 100 100 100 100 100 100 74 94 89 68 80 100 100 93 92 95 47 14 95 5 5 12 3 0 0 2 4 5
100 100 100 100 100 100 100 100 100 100 100 100 100 100 100 100 100 100 100 94 98 84 97 56 21 58 83 100 98 73 66 10 40 100 17 5 5 7 1 2 5 5 5 5
100 100 100 100 100 100 85 94 100 100 100 100 100 100 100 100 100 100 98 98 90 92 93 97 75 72 67 68 100 100 99 100 100 87 23 5 13 92 2 4 5 5 5 5
100 100 100 100 100 100 100 100 100 100 100 100 100 100 100 100 100 100 96 100 93 100 96 82 26 31 100 100 100 81 99 100 100 58 6 72 63 0 5 5 5 5 5 5
100 100 100 100 100 100 100 100 100 100 100 100 100 100 100 100 100 100 100 100 100 100 68 18 56 100 100 100 99 100 100 100 95 63 75 7 0 2 5 5 5 5 5 5
100 100 100 100 100 100 100 100 100 100 100 100 100 100 100 100 100 100 100 100 100 100 100 100 100 100 100 100 100 100 100 99 43 6 5 0 0 5 5 8 5 5 6 61

GFSNW_prec_cloud_021.txt.gz
Cloud_Cover
100 100 100 100 100 100 100 79 59 58 47 5 5 5 0 0 0 0 0 5 5 4 5 5 5 5 0 0 0 0 0 0 0 0 0 0 0 2 1 0 0 5 4 15
100 100 100 100 100 100 100 100 96 26 53 10 5 5 5 5 1 0 2 0 4 5 5 5 4 0 0 0 0 0 0 0 0 0 0 1 1 4 5 3 2 5 32 5
100 100 100 100 100 100 64 82 84 18 33 16 11 55 5 8 5 4 5 5 5 8 5 5 0 0 0 0 0 2 5 0 2 3 4 5 3 3 5 5 7 5 5 66
100 100 100 100 100 100 45 68 72 20 53 27 72 69 79 51 5 5 5 5 5 5 1 0 0 0 0 0 0 0 0 0 0 0 0 0 4 5 5 5 5 80 5 97
100 100 100 100 100 100 99 56 18 14 5 5 19 36 60 45 20 7 5 5 2 0 0 0 0 0 0 0 0 2 0 5 5 5 0 0 0 0 0 5 5 27 100 100
100 100 100 100 100 100 100 8 74 41 5 5 5 13 76 56 71 34 10 10 5 5 2 0 0 1 0 0 2 4 1 5 5 5 7 2 18 5 5 5 95 81 100 100
100 100 100 100 100 100 41 24 64 59 12 80 17 5 16 89 50 6 38 82 64 8 5 5 4 5 5 5 3 4 5 5 21 37 72 39 9 5 6 33 5 57 82 97
100 100 100 100 100 100 100 100 98 100 100 99 38 5 7 5 35 72 95 63 61 60 5 8 14 25 76 47 5 5 5 6 40 69 5 5 6 5 5 10 6 21 54 75
100 100 100 100 100 100 100 100 100 100 100 100 100 100 99 100 78 32 16 37 49 10 6 39 95 10 5 61 15 5 4 7 13 86 39 38 5 98 56 14 34 60 79 75
100 100 100 100 100 100 89 99 67 90 99 100 100 100 100 100 100 91 56 81 60 63 66 91 91 19 5 5 28 72 83 94 94 100 99 10 5 13 2 38 77 6 56 93
100 100 100 100 100 100 100 100 100 100 100 100 92 98 53 79 97 100 100 100 100 93 100 94 55 97 16 5 5 7 32 45 76 87 100 66 23 77 81 66 10 100 69 16
100 100 100 100 100 100 100 100 100 100 100 100 100 100 100 99 100 100 100 100 100 100 100 78 87 100 90 38 75 14 11 7 40 53 14 99 100 100 97 26 100 96 84 97
100 100 100 100 100 100 100 100 100 100 100 100 100 100 100 100 100 100 88 10 48 52 10 11 80 100 10 97 47 79 69 42 92 17 13 99 100 100 97 73 92 39 8 10
100 100 100 100 100 100 100 100 100 100 100 100 100 100 100 100 100 100 90 70 42 95 99 99 100 100 5 62 36 100 48 42 32 83 62 78 44 91 94 99 100 92 22 5
100 100 100 100 100 100 100 100 100 79 87 93 100 100 100 100 100 100 68 74 97 100 100 100 80 5 18 46 45 100 100 100 56 41 100 39 100 92 94 100 77 36 46 15
100 100 100 100 100 100 100 100 100 100 100 100 100 100 100 100 100 100 100 100 100 100 91 88 26 46 9 100 100 100 100 92 100 37 80 55 35 100 100 81 48 10 5 5
100 100 100 100 100 100 95 95 100 100 100 100 100 88 90 100 100 100 100 100 100 100 94 93 86 94 75 100 99 100 38 93 67 59 78 97 100 99 68 48 30 15 7 5
100 100 100 100 100 100 98 98 100 72 73 93 89 85 91 100 100 100 100 100 100 100 100 100 100 100 100 100 100 95 75 48 56 72 46 100 96 45 60 18 5 32 46 16
100 100 100 100 100 100 100 100 100 100 100 90 100 100 100 100 100 100 100 100 100 100 100 100 100 100 98 100 100 100 61 35 94 66 90 61 92 100 100 60 57 22 5 5
100 100 100 100 100 100 100 100 100 100 100 100 100 100 100 100 100 100 100 100 100 100 100 100 100 100 100 100 100 100 66 90 99 76 52 83 100 100 98 81 5 5 5 5
100 100 100 100 100 100 100 100 100 100 100 100 100 100 100 100 100 100 100 100 100 100 100 100 100 82 100 100 100 91 92 98 99 100 100 100 100 100 12 5 5 5 5 5
100 100 100 100 100 100 100 100 100 100 100 100 100 100 100 99 100 100 100 100 100 100 84 100 100 94 100 99 96 100 100 100 100 100 100 100 100 68 5 5 5 5 5 5
100 100 100 100 100 100 100 100 100 100 100 100 100 100 100 100 100 100 100 100 100 99 100 82 99 100 100 100 100 100 96 82 59 15 9 13 28 11 5 5 5 35 27 29
100 100 100 100 100 100 100 100 100 100 100 100 100 100 100 100 100 100 100 100 100 100 100 91 99 95 92 100 100 100 98 57 5 5 53 65 16 5 37 92 26 39 27 48
100 100 100 100 100 100 100 100 100 100 100 100 100 100 100 100 100 100 100 100 100 95 100 100 100 98 96 100 100 100 50 67 35 93 22 66 40 5 5 33 72 52 96 100
100 100 100 100 100 100 100 100 100 100 100 100 100 100 100 100 100 100 100 100 100 100 100 100 94 100 100 100 74 57 71 95 92 37 62 49 50 62 68 42 91 100 100 98
100 100 100 100 100 100 100 100 100 100 100 100 100 100 100 100 100 100 100 100 100 100 100 100 100 100 85 98 100 97 98 100 93 98 98 98 95 62 89 100 100 95 12 16

GFSNW_prec_cloud_024.txt.gz
Cloud_Cover
100 100 100 100 100 100 100 100 100 100 99 86 82 100 92 91 11 2 0 0 0 5 0 5 2 0 0 0 0 0 0 0 0 0 0 0 0 0 3 5 0 0 1 68
100 100 100 100 100 100 100 100 100 100 74 60 50 63 99 43 5 2 0 1 2 2 5 3 5 5 2 0 0 0 0 0 0 0 1 0 0 2 4 1 0 0 1 5
100 100 100 100 100 100 100 100 90 67 71 74 7 14 64 5 5 2 0 5 5 4 3 5 5 3 1 0 0 0 0 0 3 1 2 1 0 0 4 4 5 5 0 15
100 100 100 100 100 100 100 97 99 38 89 9 5 5 5 5 5 0 5 5 5 16 5 5 5 5 0 0 0 0 0 0 0 0 0 0 0 0 0 0 5 77 9 99
100 100 100 100 100 100 100 74 72 5 51 58 28 14 21 6 5 5 5 5 5 15 5 5 5 0 0 0 0 0 0 0 0 0 0 0 3 0 0 0 5 61 20 46
100 100 88 100 100 100 100 98 43 56 15 39 70 28 32 64 12 10 5 5 5 18 6 5 0 0 0 0 0 1 0 0 1 2 6 4 1 0 0 5 77 52 90 34
100 100 100 100 100 100 100 96 9 29 27 15 13 35 43 47 5 5 5 5 5 9 32 5 5 5 1 4 3 4 3 5 27 7 42 5 2 5 5 5 32 12 42 99
100 93 100 100 100 100 100 100 95 6 98 38 34 11 44 8 7 31 5 5 5 5 6 5 5 20 5 5 5 5 5 5 29 71 5 5 0 7 5 4 4 16 87 52
100 100 100 100 100 100 100 100 100 31 80 96 42 50 18 6 5 5 5 5 6 47 32 26 8 9 5 33 5 5 5 5 3 46 52 4 0 16 8 5 5 58 69 76
100 100 100 100 100 100 100 100 100 96 82 56 100 100 100 100 95 98 85 98 100 100 63 91 84 80 63 39 18 72 36 84 40 100 100 11 2 5 5 5 25 12 5 19
100 100 100 100 100 100 100 100 100 100 100 54 30 80 87 99 79 99 73 90 100 97 99 100 100 100 100 99 23 7 22 27 73 89 93 32 4 44 73 42 10 64 99 100
100 100 100 100 100 100 100 100 100 100 100 100 45 56 90 92 100 76 62 17 48 12 100 100 84 89 76 77 63 47 5 7 7 5 5 57 100 95 15 74 47 82 86 100
100 100 100 100 100 100 100 100 100 100 100 100 76 100 100 100 94 100 100 100 100 100 100 100 92 100 75 98 100 64 21 10 4 5 5 37 77 5 21 13 53 60 97 100
100 100 100 100 100 100 100 100 100 100 100 100 100 100 100 100 100 100 100 100 100 100 100 100 100 100 39 94 100 100 100 100 41 7 43 71 95 33 51 26 54 99 84 43
100 100 100 100 100 100 100 100 100 100 100 100 100 100 100 100 100 96 86 100 100 100 100 100 99 71 100 87 87 100 100 100 100 14 38 71 20 60 84 35 22 59 78 98
100 100 100 100 100 100 100 99 99 100 100 100 100 100 100 86 82 61 81 100 100 100 100 100 82 100 100 98 100 100 100 100 84 100 16 34 76 67 43 94 71 85 95 24
100 100 100 100 100 100 93 99 100 100 100 100 93 98 97 100 100 99 100 100 100 100 100 100 100 100 67 100 89 100 100 100 100 94 5 44 99 88 73 99 84 95 99 100
100 100 100 100 100 100 100 100 100 100 100 100 89 92 100 100 100 100 100 100 100 100 99 93 100 97 92 100 100 100 100 99 64 7 58 87 100 100 89 84 89 100 100 100
100 100 100 100 99 99 100 100 100 100 100 100 100 100 100 100 100 100 100 100 100 90 100 100 71 100 100 100 100 97 90 28 46 95 100 100 96 75 88 83 91 100 100 85
100 100 100 100 100 100 100 100 100 100 100 97 100 100 100 100 100 100 100 100 100 100 100 100 100 100 100 100 100 90 94 94 100 100 100 86 77 34 89 100 98 64 17 5
100 100 100 100 100 100 100 100 100 100 100 100 100 100 100 100 100 100 100 100 100 100 86 98 97 99 100 100 100 100 100 100 100 100 100 94 48 86 71 85 91 71 24 5
100 100 100 100 100 100 100 100 100 100 100 100 100 100 100 100 100 100 100 100 100 100 89 100 89 100 99 100 100 100 100 100 100 100 90 100 100 91 100 92 87 23 25 62
100 100 100 100 100 100 100 100 100 100 100 100 100 100 100 100 100 100 100 100 100 100 100 93 100 100 95 99 100 100 98 100 99 99 100 100 100 100 95 71 83 78 91 84
100 100 100 100 100 100 100 100 100 100 100 100 100 100 100 100 100 100 100 100 100 100 100 83 100 100 100 96 100 100 76 100 100 100 98 100 100 100 100 100 100 100 100 99
94 100 100 100 100 100 100 100 100 100 100 100 100 100 100 100 100 100 100 100 100 100 100 100 100 100 100 100 93 90 95 48 90 100 99 100 100 100 100 100 100 76 81 93
98 95 100 100 100 100 100 100 100 100 100 100 100 100 100 100 100 100 100 100 100 100 100 100 100 100 100 100 100 100 100 100 100 100 100 100 100 100 100 100 100 100 100 100
100 100 100 100 100 100 100 100 100 100 100 100 100 100 100 100 100 100 100 100 100 100 100 100 100 100 100 100 100 100 100 100 100 100 98 82 95 100 100 100 100 100 100 90

GFSNW_prec_cloud_030.txt.gz
Cloud_Cover
100 100 100 100 100 95 100 100 100 69 5 88 92 49 64 7 9 7 73 31 5 5 5 0 0 0 0 0 0 0 0 0 0 0 0 0 0 0 0 0 0 0 4 1
100 100 100 100 100 100 100 100 51 5 83 100 67 23 25 55 5 16 59 14 5 0 5 1 0 0 1 1 0 0 0 0 0 0 0 0 0 0 0 2 2 0 0 0
100 100 100 100 100 100 100 91 11 54 100 94 49 44 44 29 5 15 34 8 5 5 0 0 2 5 5 5 5 5 1 2 0 0 0 0 0 0 5 4 5 3 1 0
100 100 100 100 100 99 97 80 100 100 100 100 100 98 46 5 5 5 9 45 5 4 4 5 5 5 5 5 5 5 5 4 0 0 1 5 5 5 0 0 0 0 0 0
100 100 100 100 100 13 27 100 100 56 100 58 99 54 31 23 6 5 10 89 40 16 6 3 0 5 5 5 5 5 0 0 0 0 0 5 5 0 0 0 0 0 0 0
100 100 100 100 100 45 97 100 78 95 100 100 100 91 44 38 72 98 100 52 5 5 4 5 5 5 5 5 5 4 2 4 3 5 5 5 5 1 0 0 3 4 0 0
100 100 100 100 100 78 100 100 98 100 100 100 100 27 5 5 100 97 59 5 5 32 5 5 5 9 15 21 5 23 14 18 41 5 5 8 5 4 0 0 5 0 5 5
100 100 100 100 100 100 100 100 100 100 100 100 98 28 100 8 32 21 6 21 54 51 15 39 59 65 99 40 13 5 5 44 86 14 6 5 5 5 5 5 26 5 5 3
100 100 100 100 100 100 100 100 100 100 38 85 60 95 89 28 64 14 7 72 85 38 30 77 72 80 46 35 100 98 65 33 6 84 6 5 8 5 32 9 99 94 100 82
100 100 100 100 100 100 100 100 100 100 96 92 14 96 100 15 6 32 44 59 80 74 64 45 40 13 44 100 59 5 38 16 89 97 39 71 6 5 5 26 6 5 28 8
100 100 100 100 100 100 100 100 100 100 83 53 41 100 100 67 5 5 5 44 100 92 79 57 84 33 74 70 77 76 100 100 100 100 100 30 7 24 63 15 59 63 89 84
100 100 100 100 100 100 100 100 100 100 100 69 68 87 100 99 57 5 5 64 7 5 34 61 87 44 84 99 97 100 100 100 100 100 100 96 78 74 10 96 100 60 26 61
100 100 100 100 100 100 100 100 100 100 100 100 100 98 100 100 85 7 14 67 63 34 46 87 80 100 100 100 100 100 100 100 100 42 83 92 96 88 66 95 78 100 100 99
100 100 100 100 100 100 100 100 100 100 100 100 100 100 100 100 100 100 100 31 6 28 98 100 100 100 100 100 100 100 100 45 14 5 5 5 42 10 5 69 92 100 99 100
100 100 100 100 100 100 100 100 100 100 100 100 100 100 100 100 100 100 100 100 100 99 96 100 100 100 100 100 100 100 100 100 33 5 5 5 5 6 26 22 100 99 92 23
100 100 100 100 97 92 89 100 100 100 100 100 100 100 100 100 100 100 100 100 100 100 100 100 100 100 100 76 100 100 100 80 12 94 100 100 100 100 100 100 100 100 97 100
100 100 100 100 99 27 9 71 96 100 100 100 100 100 100 100 100 100 100 100 100 100 100 100 100 100 99 100 100 100 100 100 100 100 100 100 100 100 100 100 100 100 100 89
100 100 100 100 100 85 45 97 100 97 86 90 83 100 100 100 100 100 100 100 98 85 74 100 100 94 96 100 100 100 100 100 100 79 100 100 100 100 100 100 100 100 76 72
100 96 100 100 100 100 100 100 100 100 50 94 100 100 100 100 100 100 100 100 100 85 100 100 45 98 95 100 100 78 99 100 100 100 100 100 100 100 100 100 100 100 100 99
100 100 100 100 100 100 100 100 100 94 58 78 100 100 100 100 100 100 100 100 100 69 61 89 100 100 99 100 100 100 100 100 100 100 100 100 100 100 100 100 100 100 86 82
100 100 100 100 100 100 82 92 100 100 100 100 100 100 100 100 100 100 100 100 100 100 24 94 88 100 100 100 100 100 100 100 100 100 100 100 100 100 100 100 100 99 100 78
100 100 100 100 100 100 100 99 100 100 100 100 100 100 100 100 100 100 100 100 100 100 100 100 100 100 100 100 100 100 100 100 100 100 100 100 100 100 100 100 100 100 90 89
100 100 100 100 100 100 100 100 100 100 100 100 100 100 100 100 100 100 100 100 100 100 100 100 100 100 100 100 100 100 100 100 100 100 100 100 100 100 100 100 100 100 100 100
100 100 100 100 100 100 100 100 100 100 100 100 100 100 100 100 100 100 100 100 100 100 98 88 100 100 100 100 100 100 100 100 100 100 100 100 100 100 100 100 100 100 100 100
100 100 100 99 100 100 100 100 100 100 100 100 100 100 100 100 100 100 100 100 100 100 100 100 100 100 100 100 100 100 99 100 100 100 100 100 100 98 100 100 100 100 100 100
100 100 100 100 100 100 100 100 100 100 100 100 100 100 100 100 100 100 100 100 100 100 100 100 100 98 96 99 100 97 95 79 84 100 100 100 100 100 100 100 100 100 100 100
100 100 100 100 100 100 100 100 100 100 100 100 98 83 100 100 100 100 100 100 100 100 100 100 100 100 100 100 100 100 100 100 100 100 100 100 100 100 100 100 100 100 100 100

GFSNW_prec_cloud_036.txt.gz
Cloud_Cover
100 100 100 100 100 1 98 55 83 44 78 100 100 81 32 5 5 5 84 10 5 5 5 5 5 5 0 0 0 0 0 0 0 0 0 0 0 0 0 0 0 4 4 1
100 100 100 100 97 92 72 9 94 79 97 100 100 81 5 5 12 63 23 6 39 10 50 23 5 5 1 0 0 0 0 0 0 0 0 0 0 0 0 0 0 0 1 0
100 100 100 100 100 78 22 96 94 66 100 100 99 97 5 5 85 80 69 61 65 74 45 13 5 0 0 0 0 0 0 0 0 0 3 5 5 5 0 0 0 0 1 0
100 100 100 100 100 20 99 98 55 98 100 100 18 98 13 13 100 74 80 17 59 26 5 7 5 4 0 0 0 0 0 4 5 5 8 49 8 0 0 0 2 4 4 5
100 100 100 100 100 75 100 100 100 100 100 100 25 68 5 96 100 97 65 42 56 38 64 38 5 5 4 5 21 53 41 26 5 5 5 4 4 0 5 5 5 5 5 5
100 100 100 100 100 100 95 100 100 100 100 100 6 7 96 100 64 99 57 45 5 39 81 80 73 12 5 10 5 5 71 92 83 56 5 5 63 5 5 5 5 5 5 5
100 100 100 100 100 100 100 100 100 100 98 100 80 55 100 75 47 100 29 18 40 89 68 72 28 6 5 5 5 64 48 53 52 29 5 38 66 100 5 5 5 5 5 5
100 100 100 100 100 100 100 100 100 100 100 93 13 14 97 99 96 100 40 76 26 55 66 12 16 49 76 9 65 54 5 5 15 20 21 31 100 100 3 3 90 66 12 49
100 100 100 100 100 100 100 100 100 100 100 24 7 57 100 96 82 12 27 33 5 33 59 5 8 77 79 86 99 5 5 5 5 57 8 29 100 80 6 19 97 100 100 88
100 100 100 100 100 100 100 100 100 100 73 42 45 88 100 94 46 84 36 5 23 15 25 91 68 62 31 63 34 16 84 64 20 89 7 96 88 5 6 68 66 98 97 100
100 100 100 100 100 100 100 100 100 100 76 60 55 88 100 99 58 46 70 58 62 51 80 24 14 47 28 68 55 25 31 94 100 62 46 89 6 5 14 82 100 100 100 54
100 100 100 100 100 100 100 100 100 100 100 67 96 99 100 100 62 97 99 82 9 11 33 86 72 93 87 58 82 42 5 15 6 45 6 5 58 100 100 100 73 89 100 100
100 100 100 100 100 100 100 85 90 91 47 52 94 100 100 100 97 79 94 99 12 49 66 45 44 54 98 100 100 100 65 75 94 26 99 97 100 100 100 100 100 100 100 100
100 100 100 100 100 89 100 100 98 78 70 100 100 98 100 100 100 100 100 100 19 23 5 82 72 56 100 100 44 100 100 100 18 47 100 100 100 100 100 100 100 100 100 100
100 100 100 100 100 100 100 100 100 100 87 92 100 100 74 100 100 100 100 100 99 91 85 100 100 100 100 100 100 100 100 100 100 100 100 98 74 95 100 100 100 100 100 100
100 100 100 100 100 100 100 100 100 100 100 100 100 100 100 100 100 100 100 100 100 100 100 100 100 100 100 100 100 100 100 98 69 30 6 5 66 75 100 88 63 84 87 100
100 100 100 100 100 100 100 100 100 100 100 100 100 100 100 100 100 100 100 100 100 100 100 100 100 100 100 100 100 100 100 97 63 5 7 52 72 67 83 97 100 97 100 100
100 100 100 100 100 100 100 100 100 100 100 100 100 100 100 100 100 100 100 100 100 100 100 100 100 100 100 100 100 100 87 93 55 22 51 85 100 100 100 100 100 100 100 100
100 100 100 100 100 100 100 100 100 100 100 100 100 100 100 100 100 100 100 100 100 100 100 100 85 100 100 100 100 100 99 100 100 100 100 100 100 100 100 100 100 100 100 100
100 100 100 100 100 100 100 100 100 100 100 100 100 100 100 100 100 100 100 99 93 51 85 99 100 100 100 100 100 100 100 100 100 100 100 100 100 100 100 100 100 100 100 100
100 100 100 100 99 96 100 98 100 100 100 100 100 100 100 100 100 100 69 94 68 90 15 100 94 100 100 100 100 100 100 100 100 100 100 100 100 100 100 100 100 100 100 100
100 100 100 97 96 88 86 86 94 69 99 100 100 100 100 100 100 100 100 100 91 96 95 100 100 100 100 100 100 100 100 100 100 100 100 100 100 100 100 100 100 100 100 100
100 100 100 100 99 100 100 100 100 100 100 100 100 100 100 100 100 100 100 100 100 96 100 100 99 100 100 100 100 100 100 100 100 100 100 100 100 100 100 100 100 100 100 100
100 100 100 97 100 100 100 100 100 100 100 100 100 100 100 100 100 100 100 100 100 100 97 100 100 100 100 100 100 100 100 100 100 100 100 100 100 100 100 100 100 100 100 100
100 96 91 99 100 100 100 100 100 100 100 100 100 100 100 100 100 100 100 100 96 94 94 100 100 100 100 100 100 100 100 100 100 100 97 100 100 100 100 100 100 100 100 100
100 95 99 100 100 100 100 100 100 100 100 100 100 100 100 100 100 100 100 100 100 97 100 86 100 100 100 100 100 100 96 88 92 99 100 99 100 100 100 100 100 100 100 100
100 100 100 100 100 100 100 100 100 100 100 100 100 100 100 100 100 100 100 99 97 100 100 100 100 100 100 100 100 100 100 100 100 100 100 100 100 100 100 100 100 100 64 9

GFSNW_prec_cloud_042.txt.gz
Cloud_Cover
100 100 100 100 100 100 96 32 100 100 100 100 6 5 0 1 100 100 100 22 56 72 5 0 5 5 5 0 4 3 5 0 0 0 0 0 0 0 0 0 0 0 0 0
100 100 100 100 73 79 35 1 96 100 51 31 5 3 0 21 100 100 53 79 12 5 5 44 45 5 3 0 0 2 0 0 0 0 0 0 1 0 0 0 2 5 26 1
100 100 100 96 52 100 100 15 12 94 7 36 39 6 1 99 100 100 54 5 5 5 5 81 11 5 5 4 1 0 0 0 0 4 5 5 5 1 1 5 5 5 0 1
100 100 100 100 100 100 89 6 0 0 0 57 32 15 5 100 100 100 12 6 13 5 19 43 8 5 5 5 5 0 0 5 5 5 5 5 5 5 5 5 5 3 0 4
100 100 100 100 100 100 100 3 0 0 82 100 100 10 100 100 100 80 54 52 22 12 84 40 51 6 5 5 0 5 5 5 5 5 5 5 8 27 5 5 4 5 4 5
100 100 100 100 100 83 90 0 1 4 100 100 95 46 100 100 100 32 50 78 6 81 55 41 15 26 5 2 1 5 5 5 5 5 6 67 99 1 5 1 0 5 5 5
100 100 100 100 86 17 40 14 43 0 96 100 38 100 100 100 90 81 48 25 45 100 48 35 43 5 5 0 2 5 5 5 29 20 93 100 99 5 1 0 5 5 5 5
100 100 100 100 58 11 89 100 29 5 100 100 100 100 100 100 99 17 19 5 66 90 34 21 5 8 10 5 5 5 5 5 62 98 22 100 100 91 5 5 5 5 5 5
100 100 99 66 60 100 100 86 2 95 100 100 100 100 100 100 69 35 19 12 96 62 9 28 27 6 5 5 5 5 5 5 5 66 81 85 100 20 5 6 5 100 46 5
99 100 89 96 100 100 100 90 100 100 100 100 100 92 92 100 64 66 50 69 75 59 50 91 29 22 5 5 5 70 28 44 49 59 49 95 53 83 47 32 74 89 89 70
100 100 100 100 100 30 96 100 100 100 100 100 100 97 100 88 16 21 98 56 100 99 60 78 36 51 25 8 5 5 14 39 79 61 69 35 26 49 56 60 53 8 16 77
100 100 100 100 78 98 100 100 100 100 100 100 100 100 100 68 9 6 57 42 70 97 100 53 63 96 67 33 71 5 5 8 64 5 5 5 5 51 9 34 98 74 66 87
100 100 100 100 100 100 100 100 100 100 100 100 91 99 100 32 40 24 92 100 100 100 56 37 99 100 25 82 59 6 5 5 5 5 30 5 5 5 5 5 8 87 100 100
100 100 100 92 100 100 100 100 100 100 100 100 96 100 100 25 67 57 69 100 100 67 58 100 100 100 97 50 23 51 5 5 5 5 5 6 5 21 45 70 99 94 24 8
100 100 100 100 100 100 100 100 100 100 100 100 100 100 100 97 33 48 93 100 100 100 95 93 99 94 99 97 92 100 55 16 36 78 89 99 100 100 100 59 21 5 12 17
100 100 100 100 100 100 100 100 100 100 100 100 100 100 100 33 72 84 80 98 100 100 100 100 100 100 100 100 100 100 100 100 100 100 90 24 6 55 100 42 65 63 17 28
89 100 100 100 100 100 100 100 100 100 100 100 96 86 18 24 31 43 43 100 100 100 100 100 100 100 100 100 100 100 100 100 100 96 30 80 91 38 60 34 70 61 83 91
100 100 100 100 100 100 100 100 100 100 100 100 100 83 45 43 97 97 86 90 70 100 100 100 100 100 100 100 100 100 100 86 60 30 50 32 59 77 95 93 100 96 100 100
100 100 100 100 100 100 100 100 100 100 100 100 100 100 100 92 100 93 91 98 100 85 99 100 92 100 100 100 100 100 93 96 97 100 99 97 100 100 100 100 100 100 96 99
100 100 100 100 100 100 100 100 100 100 100 100 100 100 100 100 100 100 99 100 85 99 92 100 100 100 100 100 100 100 100 100 100 100 100 100 100 100 100 100 97 94 100 100
100 100 100 100 100 100 100 100 100 100 100 100 100 100 100 100 100 100 100 100 100 100 100 100 100 100 100 100 100 100 97 100 91 97 100 100 100 99 92 95 100 100 100 98
100 100 100 100 100 100 100 100 100 100 100 100 100 100 100 100 100 100 100 100 100 100 100 100 100 100 100 100 100 100 98 100 100 100 100 100 100 100 100 100 100 79 94 99
100 100 100 100 99 100 100 100 100 100 100 100 100 100 100 100 100 100 100 100 99 88 98 100 100 100 100 100 100 100 100 100 100 100 100 100 100 100 100 100 100 97 88 73
100 100 100 100 100 100 100 100 100 100 100 100 100 100 100 100 100 100 100 100 100 100 100 100 100 100 100 100 100 100 100 100 100 100 100 100 100 100 99 73 13 7 16 39
100 100 100 100 100 100 100 100 100 100 100 100 100 97 90 100 100 100 98 100 100 100 100 94 100 100 100 100 92 99 100 100 100 92 82 48 44 23 23 53 36 6 5 5
100 100 100 100 100 100 100 100 100 100 100 100 100 100 100 100 100 100 99 97 81 96 100 100 100 100 100 100 100 100 100 98 90 97 99 100 82 54 42 8 5 5 11 7
100 100 100 100 100 100 100 100 100 100 100 100 100 100 100 100 100 100 95 97 88 100 100 100 100 100 100 100 100 100 100 100 100 52 44 36 8 5 5 5 4 5 6 62

GFSNW_prec_cloud_045.txt.gz
Cloud_Cover
100 100 100 100 100 100 100 100 100 100 46 62 85 100 100 60 71 0 5 66 93 100 54 39 55 5 5 0 0 3 5 5 5 5 5 4 1 0 0 0 0 0 0 0
100 100 100 100 100 100 100 100 100 100 99 100 100 100 100 22 5 2 50 100 100 100 95 88 72 5 1 1 5 5 1 3 5 5 1 0 0 0 0 0 0 0 19 0
96 84 100 100 100 100 100 100 100 100 99 100 100 85 20 67 5 6 5 100 100 100 100 81 78 5 58 7 31 5 4 2 1 5 32 29 4 0 0 0 0 0 0 0
87 8 98 100 100 100 100 100 100 94 100 100 100 52 22 5 5 0 3 100 100 100 100 87 59 28 9 15 13 5 5 5 1 0 1 2 1 0 2 5 0 6 0 5
99 2 100 100 100 100 100 100 100 97 100 100 94 94 36 5 5 4 24 100 100 91 100 69 88 66 5 6 5 12 5 0 0 0 0 0 4 5 2 0 3 5 5 55
64 4 39 100 100 96 77 98 94 96 73 43 98 15 5 5 67 7 83 100 69 54 61 99 100 47 32 6 5 5 5 2 2 4 5 5 12 5 4 5 5 5 10 5
4 46 100 100 100 81 74 91 64 100 5 1 18 75 100 5 46 41 100 99 87 90 77 93 94 56 59 5 5 5 5 3 5 8 5 86 10 5 4 5 5 5 5 5
19 93 100 100 100 99 100 100 93 100 98 27 33 100 78 100 100 100 100 88 61 10 58 66 77 78 63 36 21 5 5 5 8 56 25 90 5 5 5 5 5 9 5 5
100 100 100 100 100 100 100 100 92 100 7 14 30 100 73 65 100 100 100 98 12 33 67 70 64 70 10 63 5 5 5 5 5 54 63 72 53 5 5 5 5 36 12 5
100 100 100 100 100 100 92 100 100 89 22 99 100 54 48 100 100 100 100 55 82 68 70 92 34 76 38 19 5 66 17 43 38 5 35 5 11 7 18 10 33 8 5 5
100 100 100 100 100 100 79 100 100 78 35 100 100 98 100 100 100 100 100 47 12 80 71 62 32 64 50 6 5 5 5 6 72 6 65 63 26 42 96 82 40 14 5 5
100 100 100 100 100 100 100 100 99 77 100 100 87 100 100 100 100 100 98 49 10 6 21 95 66 92 70 8 5 5 5 6 18 19 6 7 34 6 32 7 27 38 60 10
100 100 100 100 100 100 100 100 59 95 37 97 100 100 100 100 100 100 74 10 6 76 70 86 8 96 5 78 5 5 7 22 77 81 14 5 5 5 5 5 5 5 15 99
100 100 100 100 100 100 100 100 92 31 86 100 100 100 100 100 100 100 93 98 12 82 35 32 76 88 12 20 12 8 45 17 23 90 5 18 5 6 5 31 81 100 100 100
100 100 100 100 100 100 100 100 100 100 100 100 100 100 100 100 100 100 99 83 25 91 98 68 100 71 88 58 14 73 47 45 9 9 50 54 68 100 100 100 100 64 37 82
100 100 100 100 100 100 100 100 100 100 100 100 100 100 100 100 100 96 84 60 5 96 100 100 64 100 90 88 76 98 100 80 84 100 100 100 100 100 100 100 78 86 99 58
100 100 100 100 100 99 100 100 100 100 100 100 100 100 100 100 100 78 75 54 28 65 52 93 100 100 100 100 100 100 100 100 100 100 100 78 100 62 48 36 78 92 100 100
100 100 100 100 100 100 100 100 100 100 100 100 100 100 100 100 100 100 69 49 34 57 96 98 96 100 100 100 100 100 100 100 100 100 80 18 31 34 66 93 92 98 61 80
100 100 100 100 100 100 100 100 100 100 100 100 100 100 100 100 100 100 95 48 98 76 99 99 100 100 100 100 100 100 100 64 93 84 72 68 60 69 96 77 73 63 78 88
100 90 100 100 100 100 100 100 100 100 100 100 100 100 100 100 100 100 74 100 83 98 92 66 100 100 100 87 75 82 91 100 91 100 98 94 91 83 100 100 100 98 97 61
97 100 100 100 99 100 100 100 100 100 96 68 98 97 100 100 100 100 100 93 82 100 100 100 89 100 100 88 99 97 98 100 100 90 93 76 100 100 100 77 84 98 100 100
100 100 100 100 100 100 100 100 100 100 100 100 100 100 100 100 100 100 100 100 88 100 100 95 100 100 100 100 100 100 100 100 97 94 100 100 100 97 100 100 100 100 100 100
100 100 99 100 100 100 100 100 100 100 100 100 100 100 100 100 100 100 100 100 100 100 100 99 100 100 100 100 100 100 100 100 100 97 100 100 100 100 100 100 100 100 90 89
100 100 100 100 100 100 100 100 100 100 100 100 100 100 100 100 100 100 100 100 99 100 100 100 100 100 100 100 100 100 100 100 100 100 100 100 100 100 100 100 100 100 99 49
100 100 100 100 100 100 100 100 100 100 100 100 100 100 99 100 100 97 100 100 100 100 100 100 100 100 100 100 100 100 100 100 100 100 100 100 100 100 100 100 92 58 29 5
100 100 100 100 100 100 100 100 100 100 100 100 100 100 100 100 100 99 100 100 100 100 100 100 100 100 100 100 100 100 100 100 100 100 100 100 100 97 75 24 5 2 5 5
100 100 100 100 100 100 100 100 100 100 100 100 100 100 100 98 100 100 100 100 98 100 100 100 100 100 100 100 99 98 100 85 82 94 82 30 6 3 0 0 0 0 4 5

GFSNW_prec_cloud_048.txt.gz
Cloud_Cover
100 34 37 50 100 100 100 100 100 100 100 95 96 100 100 100 100 100 100 43 80 5 81 100 93 100 52 5 24 93 82 53 11 4 5 1 0 26 5 7 5 4 0 0
100 95 100 6 14 100 100 100 100 100 100 100 100 100 100 100 100 100 100 2 3 5 61 100 100 33 64 46 5 26 67 2 0 3 23 5 5 5 5 1 29 0 15 0
100 100 100 51 6 96 100 100 100 100 100 100 100 100 100 100 100 100 99 5 1 5 49 96 85 47 49 55 45 10 0 5 5 18 4 87 77 6 1 5 4 0 0 0
100 100 100 79 3 96 100 100 100 100 100 100 100 100 100 100 100 100 99 5 4 5 5 100 100 21 40 63 5 5 15 69 18 5 5 79 0 50 64 5 5 3 0 0
100 100 100 94 10 90 100 100 100 100 100 100 100 100 100 100 77 97 15 58 5 5 32 100 100 6 6 79 72 73 23 5 5 5 3 0 0 4 2 0 0 0 0 0
100 100 100 81 2 100 100 71 98 100 100 100 100 100 100 100 100 100 32 4 39 4 40 94 98 32 89 79 9 70 58 5 5 5 2 5 5 0 0 0 0 0 1 5
100 100 100 12 5 100 100 100 100 100 43 98 100 100 100 100 100 96 99 55 4 26 67 100 100 64 92 36 28 51 5 25 7 5 5 5 0 0 0 0 0 0 20 41
100 100 63 33 24 100 100 100 98 100 100 100 100 100 100 100 100 66 52 8 0 16 54 96 100 6 5 15 46 47 50 53 18 22 14 6 0 2 0 0 0 4 11 5
92 47 13 0 33 100 100 86 100 100 12 24 97 100 99 57 77 9 100 25 1 50 89 91 100 29 5 44 88 38 33 15 29 5 5 13 5 5 4 5 5 5 5 8
5 5 1 6 70 100 96 98 85 100 65 100 97 42 61 31 23 0 10 8 52 71 78 100 100 73 5 71 69 57 40 75 68 5 47 5 17 5 5 5 5 5 5 5
5 5 4 34 100 100 79 96 97 100 20 91 100 100 18 90 42 10 98 100 8 89 100 100 100 43 5 42 9 10 75 55 72 11 91 63 5 21 13 5 5 5 28 9
5 4 82 100 100 100 100 100 100 100 100 90 97 87 29 100 92 100 100 100 100 100 100 100 100 90 72 59 76 26 43 59 19 11 5 5 5 6 38 57 5 5 33 68
39 100 100 100 100 100 36 100 100 100 100 100 100 50 41 5 10 61 100 100 100 100 100 100 64 96 15 77 39 67 42 39 31 5 5 8 6 13 98 9 80 95 87 100
100 100 100 100 100 100 100 100 100 100 100 100 81 5 5 53 100 100 100 100 100 100 100 89 63 87 6 14 5 52 59 30 5 5 5 5 5 90 46 28 35 89 100 100
75 67 100 100 100 100 100 99 87 100 100 53 78 10 98 100 100 100 100 100 100 77 100 92 99 61 36 17 5 42 43 24 49 10 96 14 51 36 60 69 100 100 100 100
100 100 100 100 100 100 100 100 100 100 100 94 83 83 100 100 100 100 100 100 100 96 100 98 100 50 5 89 14 69 90 21 5 5 6 28 8 45 79 100 100 100 100 100
100 100 100 100 100 100 100 94 100 100 100 100 100 82 93 100 100 100 100 100 100 100 99 100 96 48 45 74 19 100 100 99 33 8 11 25 92 100 100 100 100 82 54 57
100 100 100 100 100 100 100 100 100 100 100 100 100 100 100 100 100 100 100 100 100 100 100 100 75 9 68 17 82 100 100 100 100 100 78 100 100 100 100 87 96 85 93 96
100 100 100 100 100 100 100 100 100 100 100 100 100 100 100 98 100 100 100 100 100 100 100 97 56 97 75 100 100 99 99 100 100 69 100 100 96 98 100 100 99 78 72 100
100 100 100 100 100 100 100 100 100 100 100 94 100 100 100 100 100 100 100 100 100 100 100 100 100 99 100 100 100 38 37 36 66 100 100 100 100 100 100 100 100 100 100 67
100 100 100 100 100 100 100 100 100 98 100 98 95 100 100 100 100 100 100 98 97 100 100 100 100 100 100 100 89 94 96 35 81 100 100 100 100 100 100 100 100 89 74 94
100 100 100 100 98 100 100 100 100 100 100 100 100 100 100 100 100 100 100 100 100 100 100 100 100 100 100 100 100 100 85 98 100 100 100 100 100 100 100 100 100 96 100 100
100 100 100 100 96 100 100 100 99 100 100 100 100 100 100 100 100 100 100 100 100 100 100 100 100 100 100 100 100 100 100 100 100 100 100 100 100 100 100 100 100 100 100 100
100 100 100 100 100 100 100 100 100 100 100 100 100 100 100 100 100 100 100 100 100 100 100 100 100 100 100 100 100 100 100 100 100 100 100 100 100 100 100 100 100 100 100 83
100 100 100 100 100 100 100 100 100 100 100 100 100 100 100 100 100 100 100 100 100 96 100 100 100 100 100 100 100 100 100 100 100 100 100 100 100 100 100 100 100 82 71 33
100 100 100 100 100 100 100 100 100 100 100 100 100 100 100 100 100 100 100 100 97 100 100 100 100 100 100 100 100 100 100 100 100 100 100 100 100 100 100 80 64 24 5 5
100 100 100 100 100 100 100 100 100 100 100 100 100 100 100 100 100 100 100 100 100 100 100 100 100 100 100 100 100 100 100 100 100 100 100 100 100 100 74 18 14 38 18 5

GFSNW_prec_cloud_051.txt.gz
Cloud_Cover
100 100 100 95 94 67 92 100 100 100 100 46 62 98 100 100 100 100 100 100 100 100 70 49 84 42 2 99 100 100 25 58 99 100 28 88 5 3 8 5 5 5 0 1
100 100 100 100 7 100 99 100 100 99 100 85 12 100 100 100 100 100 100 100 100 100 100 100 31 4 14 21 88 14 35 100 100 100 100 28 0 0 0 4 5 5 5 1
100 100 100 100 9 99 100 100 100 93 100 68 68 100 100 100 100 100 100 100 100 100 100 77 81 26 94 42 96 3 7 100 88 100 11 0 92 5 5 5 5 2 3 0
100 100 100 100 82 100 100 100 57 75 100 85 100 100 100 100 100 100 100 100 100 100 100 97 5 99 8 23 56 4 12 50 8 5 5 36 31 47 39 23 85 73 9 0
100 100 100 100 86 92 100 100 99 94 94 98 75 100 100 100 100 100 100 100 100 100 100 52 7 99 2 6 100 0 5 3 4 35 5 18 13 3 0 5 2 0 0 2
82 100 100 100 99 68 100 100 70 98 31 100 30 100 100 100 100 100 100 100 100 100 100 25 64 47 4 18 100 10 13 6 5 33 6 45 5 0 2 0 0 0 0 3
100 100 100 100 100 9 100 98 100 79 5 25 31 81 100 100 100 100 100 100 100 100 69 13 0 2 5 13 100 5 15 6 42 7 14 58 3 5 5 2 1 2 5 4
100 100 100 100 75 23 99 95 100 14 98 5 5 20 88 100 100 100 100 100 100 100 61 21 88 36 92 59 100 5 23 39 23 5 5 6 5 5 5 5 5 5 5 0
100 100 100 100 80 23 100 100 100 100 65 8 98 100 100 100 86 100 100 100 100 96 100 95 8 50 14 45 100 60 6 68 5 47 5 5 13 26 5 5 5 5 5 5
100 100 100 21 25 48 95 100 100 100 100 36 100 53 100 100 100 100 100 100 67 100 100 100 36 35 85 18 100 6 10 95 12 60 35 5 89 5 5 5 5 13 7 54
100 62 17 36 28 69 96 100 100 100 93 94 88 52 87 100 92 100 75 23 11 100 100 100 63 24 48 82 100 5 5 58 39 54 84 39 44 77 7 6 5 5 5 5
77 5 8 30 6 14 81 100 100 100 100 62 100 100 99 100 50 57 4 5 2 34 98 100 97 96 100 100 100 13 14 38 50 12 12 23 99 91 85 5 5 5 9 6
50 16 26 17 4 3 38 100 99 100 100 100 89 86 28 47 86 13 30 51 5 3 37 80 100 97 100 100 100 88 66 30 93 5 8 100 100 66 5 5 6 42 86 63
0 0 28 5 4 31 100 82 100 100 100 100 72 57 64 50 92 19 100 100 47 74 100 90 100 100 100 100 100 95 92 40 62 5 6 29 87 39 8 5 5 30 93 100
0 0 10 5 82 100 99 100 100 100 100 100 100 100 100 100 80 99 56 100 100 100 100 100 100 100 100 100 41 7 41 73 12 60 38 21 15 93 99 62 92 100 85 60
0 0 0 54 100 100 100 100 100 100 100 100 100 100 100 100 92 88 100 100 100 98 85 73 100 100 100 96 9 5 20 46 87 8 28 95 60 43 58 85 71 72 94 100
91 97 58 100 100 100 100 100 100 100 100 100 100 100 100 100 94 87 41 5 25 100 72 100 100 100 100 96 5 5 53 59 21 71 88 96 78 46 61 42 36 46 100 100
100 100 98 97 100 100 100 100 100 100 100 100 99 100 96 100 92 99 38 100 100 100 100 100 100 100 100 99 57 77 66 53 20 5 5 20 65 65 89 100 100 100 100 100
100 100 100 100 100 100 100 100 100 100 79 86 100 100 100 100 100 77 51 100 100 100 100 100 100 100 100 100 100 100 70 66 100 100 78 21 38 80 99 79 84 100 100 100
100 100 100 100 100 100 100 100 100 100 100 100 100 100 100 100 100 100 100 100 100 100 100 100 100 100 100 100 100 100 100 100 68 66 41 85 99 100 100 81 92 100 100 100
100 100 100 100 100 100 100 100 100 100 100 100 100 100 100 100 100 100 100 100 100 100 100 100 100 100 100 100 100 100 100 100 100 100 100 98 100 100 100 100 100 100 100 100
100 100 100 100 100 100 100 100 100 100 100 100 100 100 100 100 100 79 100 100 100 90 79 100 91 100 100 100 100 100 100 100 100 100 100 100 100 100 100 100 100 100 100 100
100 100 100 100 92 100 100 100 100 100 99 100 95 100 100 100 100 99 100 100 85 98 84 99 100 100 100 100 100 100 100 100 100 100 100 100 100 100 100 100 100 100 100 100
100 100 100 100 100 100 100 100 100 100 100 100 100 100 100 100 100 100 69 100 100 100 100 100 100 100 100 100 100 100 100 100 100 100 100 100 100 100 100 100 100 100 100 100
100 100 100 100 100 100 100 100 100 100 100 100 100 100 100 100 100 100 100 100 100 100 100 100 100 100 100 100 100 100 100 100 100 100 100 100 100 100 100 100 100 100 100 100
100 100 100 100 100 100 100 100 100 100 100 100 100 100 100 100 100 100 100 100 100 100 100 100 100 100 100 100 100 100 100 100 100 100 100 100 100 100 100 100 100 100 100 100
100 100 100 100 100 100 100 100 100 100 100 100 100 100 100 100 100 100 100 100 100 100 100 100 100 100 100 100 100 100 100 100 100 100 100 100 100 100 100 100 100 100 100 83

GFSNW_prec_cloud_054.txt.gz
Cloud_Cover
100 92 100 100 100 35 46 65 100 97 100 100 34 100 98 100 100 64 33 9 6 98 100 100 88 100 52 5 6 100 72 45 50 26 75 63 17 90 7 5 6 4 0 0
97 100 100 100 100 64 85 100 100 84 95 93 48 96 100 70 100 12 29 18 98 100 96 100 100 100 86 4 4 2 100 72 72 100 78 62 2 4 48 4 5 5 4 0
100 100 100 100 100 88 50 100 92 100 100 14 73 92 88 94 100 26 10 40 92 100 100 100 100 100 28 0 1 10 39 86 100 100 99 72 28 98 32 28 4 5 2 1
100 98 100 100 100 79 64 100 91 24 100 100 100 100 100 100 100 15 95 91 100 100 100 100 100 84 27 95 0 9 99 92 100 84 100 100 100 94 0 3 5 5 0 4
99 16 99 100 100 100 92 100 30 35 24 50 94 51 100 100 100 100 100 100 100 100 100 100 100 100 100 36 4 2 5 2 5 99 100 98 3 4 0 2 51 7 65 5
100 89 100 100 100 100 92 100 78 92 27 32 99 23 100 100 100 100 100 100 100 100 100 100 100 100 100 85 17 56 5 2 70 86 5 1 8 4 5 0 0 2 8 5
44 48 71 98 100 98 42 100 99 49 28 52 41 21 100 100 100 100 100 100 100 100 100 100 100 93 100 67 43 8 3 0 73 100 6 40 9 11 0 0 5 5 4 5
18 100 96 100 100 97 50 100 100 92 18 29 96 13 97 100 100 100 100 100 100 100 100 98 82 23 100 77 23 2 69 45 85 100 14 6 6 5 0 0 5 5 5 5
95 91 100 100 100 100 46 100 100 99 93 20 47 79 100 100 100 100 100 100 100 100 100 100 100 100 100 82 100 100 100 100 17 100 38 22 75 5 1 0 14 5 5 5
96 100 100 24 91 100 88 100 100 100 86 66 5 43 100 100 100 100 100 100 100 100 100 100 100 97 100 9 9 72 100 99 28 83 31 52 79 6 5 36 5 5 5 5
20 93 100 100 100 100 56 100 100 100 100 26 5 11 77 100 55 92 100 98 98 100 99 94 97 100 100 90 26 38 5 16 100 34 58 79 100 96 8 5 5 5 5 5
9 100 93 100 100 100 82 100 100 100 100 49 70 21 6 99 50 52 100 81 100 100 100 100 100 100 100 100 100 5 1 45 38 42 7 97 94 82 5 5 5 5 5 5
100 100 100 100 93 5 16 19 100 100 100 74 100 80 57 100 65 100 99 85 100 100 12 80 89 100 100 98 100 97 0 34 39 5 92 73 87 30 5 5 5 8 26 47
100 100 100 99 50 42 33 100 38 98 100 100 89 93 100 100 100 100 62 60 100 100 98 93 100 100 100 99 66 66 5 99 36 23 92 7 69 68 9 5 5 48 87 20
100 100 100 100 62 61 73 93 62 100 78 94 69 98 100 100 100 97 100 100 100 100 59 100 98 100 100 100 72 8 5 100 89 83 10 12 10 38 27 30 66 95 82 90
100 86 78 97 24 5 16 88 95 100 100 100 100 100 100 99 96 100 100 100 87 26 98 100 100 100 100 88 42 76 18 100 100 83 8 5 5 7 32 93 99 91 100 100
100 92 31 5 32 5 5 18 9 51 100 100 100 100 100 92 100 100 100 100 100 100 100 100 100 100 100 88 81 100 100 100 100 100 76 6 5 10 28 59 65 98 98 100
6 10 5 6 62 100 19 100 94 96 100 100 100 93 100 100 100 96 100 98 100 100 100 100 100 100 97 48 98 100 100 100 100 100 100 73 5 5 5 5 55 58 44 61
5 6 14 81 97 100 72 100 100 100 100 100 100 100 100 100 100 100 100 100 100 100 100 100 100 100 100 90 100 100 100 100 100 100 100 100 77 8 5 34 100 100 100 89
36 98 100 100 100 100 100 100 100 100 100 100 100 100 100 73 100 100 100 100 100 100 100 100 100 100 100 100 100 100 100 100 100 100 100 100 100 91 61 55 92 100 94 98
100 100 100 100 100 100 100 100 100 100 100 100 100 100 100 84 100 97 73 99 99 100 100 86 87 100 100 100 100 100 100 100 100 100 100 100 100 100 100 100 100 100 100 100
100 100 100 100 100 100 100 100 100 100 100 100 100 100 100 97 99 70 75 63 59 78 100 100 100 100 100 100 100 100 100 100 100 100 100 100 100 100 100 100 100 100 100 100
100 100 100 100 100 100 100 100 100 100 100 100 100 100 100 100 64 100 90 49 100 100 100 100 99 100 100 100 100 100 100 100 100 100 100 100 100 100 100 100 100 100 100 100
100 100 100 100 100 100 100 100 100 100 100 100 100 100 100 100 100 100 98 100 84 50 60 96 100 100 100 100 100 100 100 100 100 100 100 100 100 100 100 100 100 100 100 100
100 100 100 100 100 100 100 100 100 100 100 94 87 100 100 100 100 100 100 100 100 100 100 100 100 100 100 100 100 100 100 100 100 100 100 100 100 100 100 100 100 100 100 100
100 100 100 100 100 100 100 100 100 100 100 95 69 100 100 100 100 100 100 100 100 100 100 100 100 100 100 100 100 100 100 100 100 100 100 100 100 100 100 100 100 100 100 100
100 100 100 100 100 100 100 100 100 100 100 100 100 100 100 100 100 100 100 100 100 100 100 100 100 100 100 100 100 100 100 100 100 100 100 100 100 100 100 100 100 100 100 100

GFSNW_prec_cloud_060.txt.gz
Cloud_Cover
100 22 5 5 100 100 100 100 95 69 32 100 100 100 100 100 100 100 92 100 100 100 99 23 97 100 98 5 5 94 97 94 4 1 5 4 0 0 2 5 25 37 16 5
100 80 5 4 20 100 100 100 97 90 72 89 100 100 100 100 100 100 100 72 15 49 97 69 92 100 93 14 62 100 36 96 48 1 5 6 0 0 1 2 5 5 67 5
100 100 6 5 46 100 100 100 100 100 81 0 17 100 100 100 100 100 96 100 22 41 96 75 100 95 83 98 100 44 5 42 100 92 5 5 2 0 0 17 41 5 16 38
100 100 16 5 65 59 100 100 99 41 100 46 3 100 100 100 100 58 96 100 93 94 92 95 100 100 100 100 100 5 2 5 68 100 47 4 5 4 0 25 92 22 5 46
100 100 99 60 5 18 100 100 96 69 13 95 18 100 100 100 100 100 27 100 100 100 100 100 100 100 100 100 24 5 5 5 71 100 16 5 4 0 3 97 100 100 19 72
100 100 100 61 43 81 100 100 83 12 11 60 89 7 100 100 100 100 100 100 100 100 100 100 100 100 100 99 100 5 7 5 99 100 57 4 3 0 2 58 100 100 100 94
100 100 100 100 51 4 98 93 29 18 17 86 18 6 90 100 100 100 100 100 100 100 100 100 100 100 100 95 38 5 17 94 100 100 61 36 12 1 0 1 65 66 78 3
100 100 100 100 30 100 98 98 100 31 68 5 81 37 70 100 100 100 100 100 100 100 100 100 77 20 28 92 91 71 98 100 100 97 12 91 95 3 1 0 4 15 4 0
100 100 100 100 97 100 83 100 98 74 94 13 5 92 7 42 14 50 100 100 100 100 100 100 100 100 100 100 100 100 100 100 100 69 98 100 23 3 0 0 22 62 0 0
100 100 100 59 58 28 100 100 100 100 100 95 11 5 4 6 24 5 100 100 100 100 100 86 93 99 100 100 98 100 100 100 100 100 93 100 98 14 17 2 2 5 64 16
100 100 97 93 71 92 93 100 100 100 100 90 74 5 5 2 5 26 100 100 100 100 100 96 70 100 100 100 100 100 100 100 100 100 77 100 48 5 4 9 6 8 90 100
100 100 95 100 73 88 29 100 100 100 100 98 85 35 3 23 5 80 100 93 100 100 100 100 100 100 100 100 100 100 100 100 100 100 96 100 100 74 12 7 5 5 5 63
100 100 95 99 6 5 5 100 100 100 100 100 92 22 9 13 4 2 5 5 56 69 74 100 100 100 100 100 100 100 100 100 100 100 100 100 100 100 9 2 5 5 6 91
100 100 100 97 14 34 28 100 100 100 98 100 73 73 13 5 8 5 5 16 34 86 98 97 100 100 100 100 100 100 100 100 100 100 100 100 100 58 97 13 36 19 33 95
100 100 95 100 34 22 100 100 100 100 75 100 100 100 82 33 0 4 5 5 5 32 50 100 100 100 100 100 100 94 100 100 100 100 100 100 95 99 65 17 77 92 79 100
100 99 100 100 79 99 100 100 100 100 100 100 100 17 84 100 80 96 68 5 5 5 49 98 100 100 100 100 99 100 100 100 100 100 100 100 100 100 100 100 100 100 100 100
62 75 32 17 55 100 100 100 96 100 100 100 100 44 80 65 99 100 100 88 36 11 98 100 100 99 100 52 77 100 100 100 100 100 100 100 100 100 100 100 98 100 62 100
16 23 96 100 100 100 100 97 100 99 100 97 100 87 45 43 96 100 100 100 97 100 100 100 100 100 99 77 100 100 100 100 100 100 100 100 100 100 99 80 92 100 100 100
70 100 100 100 100 100 99 100 100 100 100 100 100 98 99 17 78 94 100 100 100 100 100 100 100 100 51 100 100 100 100 82 100 100 100 100 100 100 98 100 100 100 100 100
100 100 100 100 100 100 96 100 100 100 100 83 100 44 84 86 100 100 100 100 100 100 93 100 100 96 100 100 100 100 100 100 100 100 100 100 100 99 100 100 100 96 100 100
92 100 100 92 100 69 100 100 100 100 100 92 95 100 100 100 100 100 100 100 100 100 100 100 100 100 100 100 100 100 100 100 100 100 100 100 100 100 100 100 100 100 100 100
63 15 49 97 78 97 95 100 100 100 94 100 100 100 100 100 100 100 100 100 100 100 100 100 100 100 100 100 100 100 100 100 100 100 100 100 100 100 100 100 100 100 100 100
1 3 84 100 100 100 100 100 100 100 100 100 100 100 100 100 100 100 100 100 100 100 100 100 100 100 100 100 100 100 100 100 100 100 100 100 100 100 100 100 100 100 100 100
100 100 100 100 100 100 100 100 100 100 100 100 100 100 100 100 100 100 100 100 100 100 100 100 100 100 100 100 100 100 100 100 100 100 100 100 100 100 100 100 100 100 100 100
100 100 100 100 100 100 100 100 100 100 100 100 100 100 100 100 100 100 100 100 100 100 100 100 100 100 100 100 100 100 100 100 100 100 100 100 100 100 100 100 100 100 100 100
100 100 100 100 100 100 100 100 100 100 100 100 100 100 100 100 99 100 100 97 100 100 100 100 100 100 100 100 100 100 100 100 100 100 100 100 100 100 100 100 100 100 100 100
100 100 100 100 100 100 100 100 100 100 100 100 100 100 100 100 100 100 100 100 100 100 100 100 100 100 100 100 100 100 100 100 100 100 100 100 100 100 100 100 100 100 100 100

GFSNW_prec_cloud_066.txt.gz
Cloud_Cover
100 100 100 100 100 100 100 23 100 83 27 99 100 100 5 2 5 85 67 61 100 100 100 100 100 68 100 100 100 100 94 96 100 5 1 5 10 36 7 18 18 4 0 2
100 100 100 100 100 100 100 100 100 100 16 88 98 70 47 5 5 46 63 26 100 100 100 100 100 100 100 100 100 100 95 98 10 5 2 5 5 14 5 5 5 5 5 0
100 100 100 100 100 100 100 100 100 100 86 6 2 16 62 50 5 5 100 56 98 100 100 100 100 100 100 100 100 100 54 87 26 59 5 5 5 5 5 5 6 6 5 4
100 100 100 100 100 100 100 100 86 31 100 100 3 4 24 58 50 49 100 75 64 100 100 100 100 100 100 100 100 100 100 100 39 6 5 5 5 5 27 5 13 5 37 5
100 100 100 100 100 100 100 100 95 33 61 30 64 1 5 96 5 16 62 100 74 100 100 100 100 100 100 100 100 100 100 100 64 11 5 5 5 54 29 5 5 5 5 16
56 100 100 100 100 100 100 53 45 95 6 37 91 45 0 6 94 54 25 100 100 100 100 100 100 100 100 100 100 100 100 96 98 97 96 10 76 93 5 5 5 8 9 30
5 92 100 100 100 100 100 82 77 91 90 81 46 21 3 3 8 84 41 74 84 98 100 100 100 100 100 100 100 100 100 97 100 100 99 49 100 100 80 15 5 5 2 44
26 54 100 100 100 100 100 84 27 73 99 97 33 87 83 5 13 100 100 97 100 100 100 94 100 100 100 100 100 100 100 100 100 100 100 99 100 100 41 5 7 27 4 5
56 99 100 100 100 100 100 97 99 100 100 12 2 78 100 26 1 80 100 95 71 100 100 99 100 100 100 100 100 100 100 100 100 100 92 100 100 100 100 5 64 37 5 5
5 80 100 100 100 100 100 100 99 87 100 36 64 100 73 98 23 4 100 82 16 100 88 100 100 100 100 100 100 100 100 100 100 100 100 100 100 100 100 8 94 7 5 7
57 100 100 100 100 100 100 100 100 86 100 41 54 40 100 97 99 8 28 86 35 98 68 40 100 100 100 100 100 100 100 100 100 100 100 100 100 100 95 93 80 6 50 86
100 100 100 100 100 100 100 100 78 100 62 30 28 52 100 89 4 73 9 6 6 4 6 99 99 99 100 100 100 100 100 100 100 100 100 100 100 100 100 33 5 6 29 82
59 100 100 100 100 100 100 100 100 100 88 7 86 100 84 100 100 44 31 12 5 0 4 100 100 100 100 100 100 100 100 100 100 100 100 100 100 100 98 24 62 21 78 100
97 100 100 100 100 100 100 100 100 83 70 100 35 54 100 90 5 0 15 6 4 2 5 98 100 100 100 100 100 100 100 100 100 100 100 100 100 100 100 99 100 100 100 100
100 100 100 100 100 100 100 100 100 97 6 100 91 59 100 100 9 5 4 5 2 3 2 92 100 100 100 100 100 100 100 100 100 100 100 100 100 100 100 100 100 100 100 100
100 100 100 100 100 100 100 100 96 69 62 93 100 100 100 100 21 14 4 5 0 2 10 56 100 100 100 100 100 100 100 100 100 100 100 100 100 100 100 100 100 100 100 100
100 100 100 100 100 100 100 100 99 60 100 100 100 100 54 73 53 9 18 15 1 35 35 7 99 100 100 100 100 100 100 100 100 100 100 100 100 100 100 77 100 100 100 100
100 100 100 100 100 100 88 98 9 54 100 100 100 100 100 94 100 100 82 32 34 12 15 34 62 100 100 100 100 100 100 100 99 100 80 70 37 79 100 100 100 100 100 100
100 100 100 100 100 100 100 96 48 99 88 100 100 100 100 100 100 100 100 87 100 81 93 41 22 61 22 82 100 100 100 92 99 16 6 29 31 54 99 93 99 100 100 100
100 100 100 100 95 46 42 99 100 100 92 90 100 100 100 100 100 100 100 100 100 100 77 98 100 54 49 20 89 100 99 85 64 100 72 37 6 34 9 40 100 98 100 100
100 100 100 100 100 100 100 100 100 100 100 39 99 100 100 100 99 100 100 100 99 100 100 100 100 69 61 30 42 58 48 49 42 24 23 70 63 99 99 99 100 100 100 100
100 99 96 100 100 100 100 100 100 100 100 100 100 100 100 100 100 98 99 100 94 100 100 100 100 100 100 100 98 66 46 96 100 73 99 62 92 93 100 100 100 100 100 100
100 100 100 100 100 96 91 99 100 87 69 100 90 92 100 100 60 100 100 100 100 100 100 100 100 100 100 100 100 100 100 100 100 100 100 100 100 100 100 100 100 100 100 100
100 100 100 100 90 87 79 70 100 100 98 100 91 100 90 91 93 99 100 100 98 97 100 100 100 100 100 100 100 100 100 100 100 100 100 100 100 100 100 100 100 96 100 100
97 100 89 89 100 100 100 100 100 100 97 100 98 90 86 100 100 100 100 100 79 99 100 100 100 100 100 100 100 100 100 100 100 100 100 100 100 100 99 100 100 100 100 98
97 95 100 100 100 100 100 100 100 100 100 90 69 100 100 99 100 90 100 98 98 100 100 100 100 100 100 100 100 100 100 100 100 100 100 100 100 100 100 100 100 100 98 100
99 100 100 100 100 100 100 100 100 100 100 100 100 100 100 100 99 100 100 100 100 100 100 100 100 100 100 100 100 100 100 100 100 100 100 100 100 100 100 94 100 100 96 92